Date_Time,Julian_Date,Latitude,Longitude,Instrument_Depth,Water_Salinity
(yyyy-mm-dd hh:mn:ss UTC),(JD),(+ deg. North),(+ deg. East),(m),(ppt)
1983-07-27 16:00:00 UTC,2445543.166667,29.5531,-94.1969,0036,0.3200
1983-07-27 16:30:00 UTC,2445543.187500,29.5531,-94.1969,0036,0.3200
1983-07-27 17:00:00 UTC,2445543.208333,29.5531,-94.1969,0036,0.3210
1983-07-27 17:30:00 UTC,2445543.229167,29.5531,-94.1969,0036,0.3210
1983-07-27 18:00:00 UTC,2445543.250000,29.5531,-94.1969,0036,0.3210
1983-07-27 18:30:00 UTC,2445543.270833,29.5531,-94.1969,0036,0.3210
1983-07-27 19:00:00 UTC,2445543.291667,29.5531,-94.1969,0036,0.3210
1983-07-27 19:30:00 UTC,2445543.312500,29.5531,-94.1969,0036,0.3210
1983-07-27 20:00:00 UTC,2445543.333333,29.5531,-94.1969,0036,0.3210
1983-07-27 20:30:00 UTC,2445543.354167,29.5531,-94.1969,0036,0.3200
1983-07-27 21:00:00 UTC,2445543.375000,29.5531,-94.1969,0036,0.3200
1983-07-27 21:30:00 UTC,2445543.395833,29.5531,-94.1969,0036,0.3190
1983-07-27 22:00:00 UTC,2445543.416667,29.5531,-94.1969,0036,0.3180
1983-07-27 22:30:00 UTC,2445543.437500,29.5531,-94.1969,0036,0.3170
1983-07-27 23:00:00 UTC,2445543.458333,29.5531,-94.1969,0036,0.3170
1983-07-27 23:30:00 UTC,2445543.479167,29.5531,-94.1969,0036,0.3170
1983-07-28 00:00:00 UTC,2445543.500000,29.5531,-94.1969,0036,0.3170
1983-07-28 00:30:00 UTC,2445543.520833,29.5531,-94.1969,0036,0.3170
1983-07-28 01:00:00 UTC,2445543.541667,29.5531,-94.1969,0036,0.3170
1983-07-28 01:30:00 UTC,2445543.562500,29.5531,-94.1969,0036,0.3170
1983-07-28 02:00:00 UTC,2445543.583333,29.5531,-94.1969,0036,0.3170
1983-07-28 02:30:00 UTC,2445543.604167,29.5531,-94.1969,0036,0.3170
1983-07-28 03:00:00 UTC,2445543.625000,29.5531,-94.1969,0036,0.3170
1983-07-28 03:30:00 UTC,2445543.645833,29.5531,-94.1969,0036,0.3180
1983-07-28 04:00:00 UTC,2445543.666667,29.5531,-94.1969,0036,0.3180
1983-07-28 04:30:00 UTC,2445543.687500,29.5531,-94.1969,0036,0.3190
1983-07-28 05:00:00 UTC,2445543.708333,29.5531,-94.1969,0036,0.3200
1983-07-28 05:30:00 UTC,2445543.729167,29.5531,-94.1969,0036,0.3210
1983-07-28 06:00:00 UTC,2445543.750000,29.5531,-94.1969,0036,0.3220
1983-07-28 06:30:00 UTC,2445543.770833,29.5531,-94.1969,0036,0.3230
1983-07-28 07:00:00 UTC,2445543.791667,29.5531,-94.1969,0036,0.3230
1983-07-28 07:30:00 UTC,2445543.812500,29.5531,-94.1969,0036,0.3230
1983-07-28 08:00:00 UTC,2445543.833333,29.5531,-94.1969,0036,0.3230
1983-07-28 08:30:00 UTC,2445543.854167,29.5531,-94.1969,0036,0.3230
1983-07-28 09:00:00 UTC,2445543.875000,29.5531,-94.1969,0036,0.3230
1983-07-28 09:30:00 UTC,2445543.895833,29.5531,-94.1969,0036,0.3230
1983-07-28 10:00:00 UTC,2445543.916667,29.5531,-94.1969,0036,0.3230
1983-07-28 10:30:00 UTC,2445543.937500,29.5531,-94.1969,0036,0.3230
1983-07-28 11:00:00 UTC,2445543.958333,29.5531,-94.1969,0036,0.3240
1983-07-28 11:30:00 UTC,2445543.979167,29.5531,-94.1969,0036,0.3240
1983-07-28 12:00:00 UTC,2445544.000000,29.5531,-94.1969,0036,0.3230
1983-07-28 12:30:00 UTC,2445544.020833,29.5531,-94.1969,0036,0.3230
1983-07-28 13:00:00 UTC,2445544.041667,29.5531,-94.1969,0036,0.3240
1983-07-28 13:30:00 UTC,2445544.062500,29.5531,-94.1969,0036,0.3240
1983-07-28 14:00:00 UTC,2445544.083333,29.5531,-94.1969,0036,0.3240
1983-07-28 14:30:00 UTC,2445544.104167,29.5531,-94.1969,0036,0.3240
1983-07-28 15:00:00 UTC,2445544.125000,29.5531,-94.1969,0036,0.3240
1983-07-28 15:30:00 UTC,2445544.145833,29.5531,-94.1969,0036,0.3240
1983-07-28 16:00:00 UTC,2445544.166667,29.5531,-94.1969,0036,0.3240
1983-07-28 16:30:00 UTC,2445544.187500,29.5531,-94.1969,0036,0.3240
1983-07-28 17:00:00 UTC,2445544.208333,29.5531,-94.1969,0036,0.3240
1983-07-28 17:30:00 UTC,2445544.229167,29.5531,-94.1969,0036,0.3230
1983-07-28 18:00:00 UTC,2445544.250000,29.5531,-94.1969,0036,0.3230
1983-07-28 18:30:00 UTC,2445544.270833,29.5531,-94.1969,0036,0.3230
1983-07-28 19:00:00 UTC,2445544.291667,29.5531,-94.1969,0036,0.3240
1983-07-28 19:30:00 UTC,2445544.312500,29.5531,-94.1969,0036,0.3240
1983-07-28 20:00:00 UTC,2445544.333333,29.5531,-94.1969,0036,0.3240
1983-07-28 20:30:00 UTC,2445544.354167,29.5531,-94.1969,0036,0.3240
1983-07-28 21:00:00 UTC,2445544.375000,29.5531,-94.1969,0036,0.3240
1983-07-28 21:30:00 UTC,2445544.395833,29.5531,-94.1969,0036,0.3240
1983-07-28 22:00:00 UTC,2445544.416667,29.5531,-94.1969,0036,0.3240
1983-07-28 22:30:00 UTC,2445544.437500,29.5531,-94.1969,0036,0.3250
1983-07-28 23:00:00 UTC,2445544.458333,29.5531,-94.1969,0036,0.3260
1983-07-28 23:30:00 UTC,2445544.479167,29.5531,-94.1969,0036,0.3260
1983-07-29 00:00:00 UTC,2445544.500000,29.5531,-94.1969,0036,0.3260
1983-07-29 00:30:00 UTC,2445544.520833,29.5531,-94.1969,0036,0.3260
1983-07-29 01:00:00 UTC,2445544.541667,29.5531,-94.1969,0036,0.3260
1983-07-29 01:30:00 UTC,2445544.562500,29.5531,-94.1969,0036,0.3260
1983-07-29 02:00:00 UTC,2445544.583333,29.5531,-94.1969,0036,0.3260
1983-07-29 02:30:00 UTC,2445544.604167,29.5531,-94.1969,0036,0.3260
1983-07-29 03:00:00 UTC,2445544.625000,29.5531,-94.1969,0036,0.3260
1983-07-29 03:30:00 UTC,2445544.645833,29.5531,-94.1969,0036,0.3260
1983-07-29 04:00:00 UTC,2445544.666667,29.5531,-94.1969,0036,0.3260
1983-07-29 04:30:00 UTC,2445544.687500,29.5531,-94.1969,0036,0.3260
1983-07-29 05:00:00 UTC,2445544.708333,29.5531,-94.1969,0036,0.3260
1983-07-29 05:30:00 UTC,2445544.729167,29.5531,-94.1969,0036,0.3260
1983-07-29 06:00:00 UTC,2445544.750000,29.5531,-94.1969,0036,0.3260
1983-07-29 06:30:00 UTC,2445544.770833,29.5531,-94.1969,0036,0.3260
1983-07-29 07:00:00 UTC,2445544.791667,29.5531,-94.1969,0036,0.3260
1983-07-29 07:30:00 UTC,2445544.812500,29.5531,-94.1969,0036,0.3260
1983-07-29 08:00:00 UTC,2445544.833333,29.5531,-94.1969,0036,0.3260
1983-07-29 08:30:00 UTC,2445544.854167,29.5531,-94.1969,0036,0.3260
1983-07-29 09:00:00 UTC,2445544.875000,29.5531,-94.1969,0036,0.3260
1983-07-29 09:30:00 UTC,2445544.895833,29.5531,-94.1969,0036,0.3260
1983-07-29 10:00:00 UTC,2445544.916667,29.5531,-94.1969,0036,0.3260
1983-07-29 10:30:00 UTC,2445544.937500,29.5531,-94.1969,0036,0.3260
1983-07-29 11:00:00 UTC,2445544.958333,29.5531,-94.1969,0036,0.3260
1983-07-29 11:30:00 UTC,2445544.979167,29.5531,-94.1969,0036,0.3260
1983-07-29 12:00:00 UTC,2445545.000000,29.5531,-94.1969,0036,0.3260
1983-07-29 12:30:00 UTC,2445545.020833,29.5531,-94.1969,0036,0.3260
1983-07-29 13:00:00 UTC,2445545.041667,29.5531,-94.1969,0036,0.3260
1983-07-29 13:30:00 UTC,2445545.062500,29.5531,-94.1969,0036,0.3260
1983-07-29 14:00:00 UTC,2445545.083333,29.5531,-94.1969,0036,0.3250
1983-07-29 14:30:00 UTC,2445545.104167,29.5531,-94.1969,0036,0.3250
1983-07-29 15:00:00 UTC,2445545.125000,29.5531,-94.1969,0036,0.3250
1983-07-29 15:30:00 UTC,2445545.145833,29.5531,-94.1969,0036,0.3250
1983-07-29 16:00:00 UTC,2445545.166667,29.5531,-94.1969,0036,0.3250
1983-07-29 16:30:00 UTC,2445545.187500,29.5531,-94.1969,0036,0.3250
1983-07-29 17:00:00 UTC,2445545.208333,29.5531,-94.1969,0036,0.3260
1983-07-29 17:30:00 UTC,2445545.229167,29.5531,-94.1969,0036,0.3250
1983-07-29 18:00:00 UTC,2445545.250000,29.5531,-94.1969,0036,0.3250
1983-07-29 18:30:00 UTC,2445545.270833,29.5531,-94.1969,0036,0.3250
1983-07-29 19:00:00 UTC,2445545.291667,29.5531,-94.1969,0036,0.3250
1983-07-29 19:30:00 UTC,2445545.312500,29.5531,-94.1969,0036,0.3250
1983-07-29 20:00:00 UTC,2445545.333333,29.5531,-94.1969,0036,0.3250
1983-07-29 20:30:00 UTC,2445545.354167,29.5531,-94.1969,0036,0.3250
1983-07-29 21:00:00 UTC,2445545.375000,29.5531,-94.1969,0036,0.3250
1983-07-29 21:30:00 UTC,2445545.395833,29.5531,-94.1969,0036,0.3250
1983-07-29 22:00:00 UTC,2445545.416667,29.5531,-94.1969,0036,0.3240
1983-07-29 22:30:00 UTC,2445545.437500,29.5531,-94.1969,0036,0.3240
1983-07-29 23:00:00 UTC,2445545.458333,29.5531,-94.1969,0036,0.3230
1983-07-29 23:30:00 UTC,2445545.479167,29.5531,-94.1969,0036,0.3230
1983-07-30 00:00:00 UTC,2445545.500000,29.5531,-94.1969,0036,0.3220
1983-07-30 00:30:00 UTC,2445545.520833,29.5531,-94.1969,0036,0.3220
1983-07-30 01:00:00 UTC,2445545.541667,29.5531,-94.1969,0036,0.3210
1983-07-30 01:30:00 UTC,2445545.562500,29.5531,-94.1969,0036,0.3200
1983-07-30 02:00:00 UTC,2445545.583333,29.5531,-94.1969,0036,0.3200
1983-07-30 02:30:00 UTC,2445545.604167,29.5531,-94.1969,0036,0.3200
1983-07-30 03:00:00 UTC,2445545.625000,29.5531,-94.1969,0036,0.3200
1983-07-30 03:30:00 UTC,2445545.645833,29.5531,-94.1969,0036,0.3200
1983-07-30 04:00:00 UTC,2445545.666667,29.5531,-94.1969,0036,0.3200
1983-07-30 04:30:00 UTC,2445545.687500,29.5531,-94.1969,0036,0.3210
1983-07-30 05:00:00 UTC,2445545.708333,29.5531,-94.1969,0036,0.3220
1983-07-30 05:30:00 UTC,2445545.729167,29.5531,-94.1969,0036,0.3220
1983-07-30 06:00:00 UTC,2445545.750000,29.5531,-94.1969,0036,0.3210
1983-07-30 06:30:00 UTC,2445545.770833,29.5531,-94.1969,0036,0.3210
1983-07-30 07:00:00 UTC,2445545.791667,29.5531,-94.1969,0036,0.3210
1983-07-30 07:30:00 UTC,2445545.812500,29.5531,-94.1969,0036,0.3200
1983-07-30 08:00:00 UTC,2445545.833333,29.5531,-94.1969,0036,0.3200
1983-07-30 08:30:00 UTC,2445545.854167,29.5531,-94.1969,0036,0.3190
1983-07-30 09:00:00 UTC,2445545.875000,29.5531,-94.1969,0036,0.3180
1983-07-30 09:30:00 UTC,2445545.895833,29.5531,-94.1969,0036,0.3170
1983-07-30 10:00:00 UTC,2445545.916667,29.5531,-94.1969,0036,0.3170
1983-07-30 10:30:00 UTC,2445545.937500,29.5531,-94.1969,0036,0.3160
1983-07-30 11:00:00 UTC,2445545.958333,29.5531,-94.1969,0036,0.3160
1983-07-30 11:30:00 UTC,2445545.979167,29.5531,-94.1969,0036,0.3150
1983-07-30 12:00:00 UTC,2445546.000000,29.5531,-94.1969,0036,0.3140
1983-07-30 12:30:00 UTC,2445546.020833,29.5531,-94.1969,0036,0.3140
1983-07-30 13:00:00 UTC,2445546.041667,29.5531,-94.1969,0036,0.3130
1983-07-30 13:30:00 UTC,2445546.062500,29.5531,-94.1969,0036,0.3130
1983-07-30 14:00:00 UTC,2445546.083333,29.5531,-94.1969,0036,0.3120
1983-07-30 14:30:00 UTC,2445546.104167,29.5531,-94.1969,0036,0.3120
1983-07-30 15:00:00 UTC,2445546.125000,29.5531,-94.1969,0036,0.3120
1983-07-30 15:30:00 UTC,2445546.145833,29.5531,-94.1969,0036,0.3110
1983-07-30 16:00:00 UTC,2445546.166667,29.5531,-94.1969,0036,0.3110
1983-07-30 16:30:00 UTC,2445546.187500,29.5531,-94.1969,0036,0.3100
1983-07-30 17:00:00 UTC,2445546.208333,29.5531,-94.1969,0036,0.3090
1983-07-30 17:30:00 UTC,2445546.229167,29.5531,-94.1969,0036,0.3090
1983-07-30 18:00:00 UTC,2445546.250000,29.5531,-94.1969,0036,0.3080
1983-07-30 18:30:00 UTC,2445546.270833,29.5531,-94.1969,0036,0.3080
1983-07-30 19:00:00 UTC,2445546.291667,29.5531,-94.1969,0036,0.3080
1983-07-30 19:30:00 UTC,2445546.312500,29.5531,-94.1969,0036,0.3080
1983-07-30 20:00:00 UTC,2445546.333333,29.5531,-94.1969,0036,0.3070
1983-07-30 20:30:00 UTC,2445546.354167,29.5531,-94.1969,0036,0.3060
1983-07-30 21:00:00 UTC,2445546.375000,29.5531,-94.1969,0036,0.3060
1983-07-30 21:30:00 UTC,2445546.395833,29.5531,-94.1969,0036,0.3060
1983-07-30 22:00:00 UTC,2445546.416667,29.5531,-94.1969,0036,0.3060
1983-07-30 22:30:00 UTC,2445546.437500,29.5531,-94.1969,0036,0.3060
1983-07-30 23:00:00 UTC,2445546.458333,29.5531,-94.1969,0036,0.3060
1983-07-30 23:30:00 UTC,2445546.479167,29.5531,-94.1969,0036,0.3050
1983-07-31 00:00:00 UTC,2445546.500000,29.5531,-94.1969,0036,0.3040
1983-07-31 00:30:00 UTC,2445546.520833,29.5531,-94.1969,0036,0.3030
1983-07-31 01:00:00 UTC,2445546.541667,29.5531,-94.1969,0036,0.3020
1983-07-31 01:30:00 UTC,2445546.562500,29.5531,-94.1969,0036,0.3000
1983-07-31 02:00:00 UTC,2445546.583333,29.5531,-94.1969,0036,0.3000
1983-07-31 02:30:00 UTC,2445546.604167,29.5531,-94.1969,0036,0.3000
1983-07-31 03:00:00 UTC,2445546.625000,29.5531,-94.1969,0036,0.3000
1983-07-31 03:30:00 UTC,2445546.645833,29.5531,-94.1969,0036,0.3000
1983-07-31 04:00:00 UTC,2445546.666667,29.5531,-94.1969,0036,0.0020
1983-07-31 04:30:00 UTC,2445546.687500,29.5531,-94.1969,0036,0.2980
1983-07-31 05:00:00 UTC,2445546.708333,29.5531,-94.1969,0036,0.2980
1983-07-31 05:30:00 UTC,2445546.729167,29.5531,-94.1969,0036,0.2980
1983-07-31 06:00:00 UTC,2445546.750000,29.5531,-94.1969,0036,0.2970
1983-07-31 06:30:00 UTC,2445546.770833,29.5531,-94.1969,0036,0.2960
1983-07-31 07:00:00 UTC,2445546.791667,29.5531,-94.1969,0036,0.2960
1983-07-31 07:30:00 UTC,2445546.812500,29.5531,-94.1969,0036,0.2960
1983-07-31 08:00:00 UTC,2445546.833333,29.5531,-94.1969,0036,0.2950
1983-07-31 08:30:00 UTC,2445546.854167,29.5531,-94.1969,0036,0.2940
1983-07-31 09:00:00 UTC,2445546.875000,29.5531,-94.1969,0036,0.2930
1983-07-31 09:30:00 UTC,2445546.895833,29.5531,-94.1969,0036,0.2920
1983-07-31 10:00:00 UTC,2445546.916667,29.5531,-94.1969,0036,0.2910
1983-07-31 10:30:00 UTC,2445546.937500,29.5531,-94.1969,0036,0.2900
1983-07-31 11:00:00 UTC,2445546.958333,29.5531,-94.1969,0036,0.2890
1983-07-31 11:30:00 UTC,2445546.979167,29.5531,-94.1969,0036,0.2890
1983-07-31 12:00:00 UTC,2445547.000000,29.5531,-94.1969,0036,0.2880
1983-07-31 12:30:00 UTC,2445547.020833,29.5531,-94.1969,0036,0.2880
1983-07-31 13:00:00 UTC,2445547.041667,29.5531,-94.1969,0036,0.2880
1983-07-31 13:30:00 UTC,2445547.062500,29.5531,-94.1969,0036,0.2870
1983-07-31 14:00:00 UTC,2445547.083333,29.5531,-94.1969,0036,0.2850
1983-07-31 14:30:00 UTC,2445547.104167,29.5531,-94.1969,0036,0.2850
1983-07-31 15:00:00 UTC,2445547.125000,29.5531,-94.1969,0036,0.2840
1983-07-31 15:30:00 UTC,2445547.145833,29.5531,-94.1969,0036,0.2830
1983-07-31 16:00:00 UTC,2445547.166667,29.5531,-94.1969,0036,0.2840
1983-07-31 16:30:00 UTC,2445547.187500,29.5531,-94.1969,0036,0.2840
1983-07-31 17:00:00 UTC,2445547.208333,29.5531,-94.1969,0036,0.2840
1983-07-31 17:30:00 UTC,2445547.229167,29.5531,-94.1969,0036,0.2840
1983-07-31 18:00:00 UTC,2445547.250000,29.5531,-94.1969,0036,0.2840
1983-07-31 18:30:00 UTC,2445547.270833,29.5531,-94.1969,0036,0.2840
1983-07-31 19:00:00 UTC,2445547.291667,29.5531,-94.1969,0036,0.2830
1983-07-31 19:30:00 UTC,2445547.312500,29.5531,-94.1969,0036,0.2830
1983-07-31 20:00:00 UTC,2445547.333333,29.5531,-94.1969,0036,0.2830
1983-07-31 20:30:00 UTC,2445547.354167,29.5531,-94.1969,0036,0.2830
1983-07-31 21:00:00 UTC,2445547.375000,29.5531,-94.1969,0036,0.2830
1983-07-31 21:30:00 UTC,2445547.395833,29.5531,-94.1969,0036,0.2830
1983-07-31 22:00:00 UTC,2445547.416667,29.5531,-94.1969,0036,0.2820
1983-07-31 22:30:00 UTC,2445547.437500,29.5531,-94.1969,0036,0.2810
1983-07-31 23:00:00 UTC,2445547.458333,29.5531,-94.1969,0036,0.2810
1983-07-31 23:30:00 UTC,2445547.479167,29.5531,-94.1969,0036,0.2810
1983-08-01 00:00:00 UTC,2445547.500000,29.5531,-94.1969,0036,0.2800
1983-08-01 00:30:00 UTC,2445547.520833,29.5531,-94.1969,0036,0.2790
1983-08-01 01:00:00 UTC,2445547.541667,29.5531,-94.1969,0036,0.2790
1983-08-01 01:30:00 UTC,2445547.562500,29.5531,-94.1969,0036,0.2790
1983-08-01 02:00:00 UTC,2445547.583333,29.5531,-94.1969,0036,0.2800
1983-08-01 02:30:00 UTC,2445547.604167,29.5531,-94.1969,0036,0.2790
1983-08-01 03:00:00 UTC,2445547.625000,29.5531,-94.1969,0036,0.2790
1983-08-01 03:30:00 UTC,2445547.645833,29.5531,-94.1969,0036,0.2790
1983-08-01 04:00:00 UTC,2445547.666667,29.5531,-94.1969,0036,0.2780
1983-08-01 04:30:00 UTC,2445547.687500,29.5531,-94.1969,0036,0.2770
1983-08-01 05:00:00 UTC,2445547.708333,29.5531,-94.1969,0036,0.2770
1983-08-01 05:30:00 UTC,2445547.729167,29.5531,-94.1969,0036,0.2770
1983-08-01 06:00:00 UTC,2445547.750000,29.5531,-94.1969,0036,0.2770
1983-08-01 06:30:00 UTC,2445547.770833,29.5531,-94.1969,0036,0.2770
1983-08-01 07:00:00 UTC,2445547.791667,29.5531,-94.1969,0036,0.2770
1983-08-01 07:30:00 UTC,2445547.812500,29.5531,-94.1969,0036,0.2770
1983-08-01 08:00:00 UTC,2445547.833333,29.5531,-94.1969,0036,0.2770
1983-08-01 08:30:00 UTC,2445547.854167,29.5531,-94.1969,0036,0.2770
1983-08-01 09:00:00 UTC,2445547.875000,29.5531,-94.1969,0036,0.2770
1983-08-01 09:30:00 UTC,2445547.895833,29.5531,-94.1969,0036,0.2770
1983-08-01 10:00:00 UTC,2445547.916667,29.5531,-94.1969,0036,0.2770
1983-08-01 10:30:00 UTC,2445547.937500,29.5531,-94.1969,0036,0.2770
1983-08-01 11:00:00 UTC,2445547.958333,29.5531,-94.1969,0036,0.2770
1983-08-01 11:30:00 UTC,2445547.979167,29.5531,-94.1969,0036,0.2770
1983-08-01 12:00:00 UTC,2445548.000000,29.5531,-94.1969,0036,0.2770
1983-08-01 12:30:00 UTC,2445548.020833,29.5531,-94.1969,0036,0.2770
1983-08-01 13:00:00 UTC,2445548.041667,29.5531,-94.1969,0036,0.2770
1983-08-01 13:30:00 UTC,2445548.062500,29.5531,-94.1969,0036,0.2770
1983-08-01 14:00:00 UTC,2445548.083333,29.5531,-94.1969,0036,0.2770
1983-08-01 14:30:00 UTC,2445548.104167,29.5531,-94.1969,0036,0.2770
1983-08-01 15:00:00 UTC,2445548.125000,29.5531,-94.1969,0036,0.2760
1983-08-01 15:30:00 UTC,2445548.145833,29.5531,-94.1969,0036,0.2760
1983-08-01 16:00:00 UTC,2445548.166667,29.5531,-94.1969,0036,0.2760
1983-08-01 16:30:00 UTC,2445548.187500,29.5531,-94.1969,0036,0.2760
1983-08-01 17:00:00 UTC,2445548.208333,29.5531,-94.1969,0036,0.2760
1983-08-01 17:30:00 UTC,2445548.229167,29.5531,-94.1969,0036,0.2760
1983-08-01 18:00:00 UTC,2445548.250000,29.5531,-94.1969,0036,0.2760
1983-08-01 18:30:00 UTC,2445548.270833,29.5531,-94.1969,0036,0.2760
1983-08-01 19:00:00 UTC,2445548.291667,29.5531,-94.1969,0036,0.2760
1983-08-01 19:30:00 UTC,2445548.312500,29.5531,-94.1969,0036,0.2750
1983-08-01 20:00:00 UTC,2445548.333333,29.5531,-94.1969,0036,0.2750
1983-08-01 20:30:00 UTC,2445548.354167,29.5531,-94.1969,0036,0.2750
1983-08-01 21:00:00 UTC,2445548.375000,29.5531,-94.1969,0036,0.2750
1983-08-01 21:30:00 UTC,2445548.395833,29.5531,-94.1969,0036,0.2750
1983-08-01 22:00:00 UTC,2445548.416667,29.5531,-94.1969,0036,0.2750
1983-08-01 22:30:00 UTC,2445548.437500,29.5531,-94.1969,0036,0.2760
1983-08-01 23:00:00 UTC,2445548.458333,29.5531,-94.1969,0036,0.2760
1983-08-01 23:30:00 UTC,2445548.479167,29.5531,-94.1969,0036,0.2750
1983-08-02 00:00:00 UTC,2445548.500000,29.5531,-94.1969,0036,0.2750
1983-08-02 00:30:00 UTC,2445548.520833,29.5531,-94.1969,0036,0.2750
1983-08-02 01:00:00 UTC,2445548.541667,29.5531,-94.1969,0036,0.2750
1983-08-02 01:30:00 UTC,2445548.562500,29.5531,-94.1969,0036,0.2750
1983-08-02 02:00:00 UTC,2445548.583333,29.5531,-94.1969,0036,0.2750
1983-08-02 02:30:00 UTC,2445548.604167,29.5531,-94.1969,0036,0.2750
1983-08-02 03:00:00 UTC,2445548.625000,29.5531,-94.1969,0036,0.2750
1983-08-02 03:30:00 UTC,2445548.645833,29.5531,-94.1969,0036,0.2750
1983-08-02 04:00:00 UTC,2445548.666667,29.5531,-94.1969,0036,0.2750
1983-08-02 04:30:00 UTC,2445548.687500,29.5531,-94.1969,0036,0.2750
1983-08-02 05:00:00 UTC,2445548.708333,29.5531,-94.1969,0036,0.2750
1983-08-02 05:30:00 UTC,2445548.729167,29.5531,-94.1969,0036,0.2750
1983-08-02 06:00:00 UTC,2445548.750000,29.5531,-94.1969,0036,0.2750
1983-08-02 06:30:00 UTC,2445548.770833,29.5531,-94.1969,0036,0.2750
1983-08-02 07:00:00 UTC,2445548.791667,29.5531,-94.1969,0036,0.2750
1983-08-02 07:30:00 UTC,2445548.812500,29.5531,-94.1969,0036,0.2750
1983-08-02 08:00:00 UTC,2445548.833333,29.5531,-94.1969,0036,0.2750
1983-08-02 08:30:00 UTC,2445548.854167,29.5531,-94.1969,0036,0.2750
1983-08-02 09:00:00 UTC,2445548.875000,29.5531,-94.1969,0036,0.2750
1983-08-02 09:30:00 UTC,2445548.895833,29.5531,-94.1969,0036,0.2750
1983-08-02 10:00:00 UTC,2445548.916667,29.5531,-94.1969,0036,0.2750
1983-08-02 10:30:00 UTC,2445548.937500,29.5531,-94.1969,0036,0.2750
1983-08-02 11:00:00 UTC,2445548.958333,29.5531,-94.1969,0036,0.2750
1983-08-02 11:30:00 UTC,2445548.979167,29.5531,-94.1969,0036,0.2750
1983-08-02 12:00:00 UTC,2445549.000000,29.5531,-94.1969,0036,0.2750
1983-08-02 12:30:00 UTC,2445549.020833,29.5531,-94.1969,0036,0.2750
1983-08-02 13:00:00 UTC,2445549.041667,29.5531,-94.1969,0036,0.2740
1983-08-02 13:30:00 UTC,2445549.062500,29.5531,-94.1969,0036,0.2740
1983-08-02 14:00:00 UTC,2445549.083333,29.5531,-94.1969,0036,0.2740
1983-08-02 14:30:00 UTC,2445549.104167,29.5531,-94.1969,0036,0.2740
1983-08-02 15:00:00 UTC,2445549.125000,29.5531,-94.1969,0036,0.2740
1983-08-02 15:30:00 UTC,2445549.145833,29.5531,-94.1969,0036,0.2740
1983-08-02 16:00:00 UTC,2445549.166667,29.5531,-94.1969,0036,0.2740
1983-08-02 16:30:00 UTC,2445549.187500,29.5531,-94.1969,0036,0.2750
1983-08-02 17:00:00 UTC,2445549.208333,29.5531,-94.1969,0036,0.2750
1983-08-02 17:30:00 UTC,2445549.229167,29.5531,-94.1969,0036,0.2750
1983-08-02 18:00:00 UTC,2445549.250000,29.5531,-94.1969,0036,0.2750
1983-08-02 18:30:00 UTC,2445549.270833,29.5531,-94.1969,0036,0.2750
1983-08-02 19:00:00 UTC,2445549.291667,29.5531,-94.1969,0036,0.2750
1983-08-02 19:30:00 UTC,2445549.312500,29.5531,-94.1969,0036,0.2750
1983-08-02 20:00:00 UTC,2445549.333333,29.5531,-94.1969,0036,0.2750
1983-08-02 20:30:00 UTC,2445549.354167,29.5531,-94.1969,0036,0.2750
1983-08-02 21:00:00 UTC,2445549.375000,29.5531,-94.1969,0036,0.2750
1983-08-02 21:30:00 UTC,2445549.395833,29.5531,-94.1969,0036,0.2760
1983-08-02 22:00:00 UTC,2445549.416667,29.5531,-94.1969,0036,0.2760
1983-08-02 22:30:00 UTC,2445549.437500,29.5531,-94.1969,0036,0.2750
1983-08-02 23:00:00 UTC,2445549.458333,29.5531,-94.1969,0036,0.2740
1983-08-02 23:30:00 UTC,2445549.479167,29.5531,-94.1969,0036,0.2740
1983-08-03 00:00:00 UTC,2445549.500000,29.5531,-94.1969,0036,0.2740
1983-08-03 00:30:00 UTC,2445549.520833,29.5531,-94.1969,0036,0.2740
1983-08-03 01:00:00 UTC,2445549.541667,29.5531,-94.1969,0036,0.2730
1983-08-03 01:30:00 UTC,2445549.562500,29.5531,-94.1969,0036,0.2740
1983-08-03 02:00:00 UTC,2445549.583333,29.5531,-94.1969,0036,0.2740
1983-08-03 02:30:00 UTC,2445549.604167,29.5531,-94.1969,0036,0.2740
1983-08-03 03:00:00 UTC,2445549.625000,29.5531,-94.1969,0036,0.2740
1983-08-03 03:30:00 UTC,2445549.645833,29.5531,-94.1969,0036,0.2730
1983-08-03 04:00:00 UTC,2445549.666667,29.5531,-94.1969,0036,0.2720
1983-08-03 04:30:00 UTC,2445549.687500,29.5531,-94.1969,0036,0.2710
1983-08-03 05:00:00 UTC,2445549.708333,29.5531,-94.1969,0036,0.2710
1983-08-03 05:30:00 UTC,2445549.729167,29.5531,-94.1969,0036,0.2710
1983-08-03 06:00:00 UTC,2445549.750000,29.5531,-94.1969,0036,0.2710
1983-08-03 06:30:00 UTC,2445549.770833,29.5531,-94.1969,0036,0.2710
1983-08-03 07:00:00 UTC,2445549.791667,29.5531,-94.1969,0036,0.2720
1983-08-03 07:30:00 UTC,2445549.812500,29.5531,-94.1969,0036,0.2720
1983-08-03 08:00:00 UTC,2445549.833333,29.5531,-94.1969,0036,0.2720
1983-08-03 08:30:00 UTC,2445549.854167,29.5531,-94.1969,0036,0.2720
1983-08-03 09:00:00 UTC,2445549.875000,29.5531,-94.1969,0036,0.2720
1983-08-03 09:30:00 UTC,2445549.895833,29.5531,-94.1969,0036,0.2720
1983-08-03 10:00:00 UTC,2445549.916667,29.5531,-94.1969,0036,0.2710
1983-08-03 10:30:00 UTC,2445549.937500,29.5531,-94.1969,0036,0.2670
1983-08-03 11:00:00 UTC,2445549.958333,29.5531,-94.1969,0036,0.2640
1983-08-03 11:30:00 UTC,2445549.979167,29.5531,-94.1969,0036,0.2650
1983-08-03 12:00:00 UTC,2445550.000000,29.5531,-94.1969,0036,0.2660
1983-08-03 12:30:00 UTC,2445550.020833,29.5531,-94.1969,0036,0.2690
1983-08-03 13:00:00 UTC,2445550.041667,29.5531,-94.1969,0036,0.2710
1983-08-03 13:30:00 UTC,2445550.062500,29.5531,-94.1969,0036,0.2710
1983-08-03 14:00:00 UTC,2445550.083333,29.5531,-94.1969,0036,0.2710
1983-08-03 14:30:00 UTC,2445550.104167,29.5531,-94.1969,0036,0.2710
1983-08-03 15:00:00 UTC,2445550.125000,29.5531,-94.1969,0036,0.2710
1983-08-03 15:30:00 UTC,2445550.145833,29.5531,-94.1969,0036,0.2710
1983-08-03 16:00:00 UTC,2445550.166667,29.5531,-94.1969,0036,0.2710
1983-08-03 16:30:00 UTC,2445550.187500,29.5531,-94.1969,0036,0.2710
1983-08-03 17:00:00 UTC,2445550.208333,29.5531,-94.1969,0036,0.2710
1983-08-03 17:30:00 UTC,2445550.229167,29.5531,-94.1969,0036,0.2710
1983-08-03 18:00:00 UTC,2445550.250000,29.5531,-94.1969,0036,0.2710
1983-08-03 18:30:00 UTC,2445550.270833,29.5531,-94.1969,0036,0.2690
1983-08-03 19:00:00 UTC,2445550.291667,29.5531,-94.1969,0036,0.2690
1983-08-03 19:30:00 UTC,2445550.312500,29.5531,-94.1969,0036,0.2690
1983-08-03 20:00:00 UTC,2445550.333333,29.5531,-94.1969,0036,0.2680
1983-08-03 20:30:00 UTC,2445550.354167,29.5531,-94.1969,0036,0.2670
1983-08-03 21:00:00 UTC,2445550.375000,29.5531,-94.1969,0036,0.2670
1983-08-03 21:30:00 UTC,2445550.395833,29.5531,-94.1969,0036,0.2660
1983-08-03 22:00:00 UTC,2445550.416667,29.5531,-94.1969,0036,0.2640
1983-08-03 22:30:00 UTC,2445550.437500,29.5531,-94.1969,0036,0.2620